Regional Weather Roundup
Issued by NWS

Home | Current Version | Previous Version | Text Only | Print | Product List | Glossary On
Versions: 1 2 3 4 5 6 7 8 9 10 11 12 13 14 15 16 17 18 19 20 21 22 23 24 25 26 27 28 29 30 31 32 33 34 35 36 37 38 39 40 41 42 43 44 45 46 47 48 49 50
000
ASUS43 KMKX 050421
RWRWI

WISCONSIN REGIONAL WEATHER ROUNDUP
NATIONAL WEATHER SERVICE MILWAUKEE/SULLIVAN WI
1100 PM CDT SAT JUL 04 2015

NOTE: "FAIR" INDICATES FEW OR NO CLOUDS BELOW 12,000 FEET WITH NO
SIGNIFICANT WEATHER AND/OR OBSTRUCTIONS TO VISIBILITY.

WIZ001-002-006>008-014>016-023>028-050500-
NORTHWEST WISCONSIN

CITY           SKY/WX    TMP DP  RH WIND       PRES   REMARKS
SUPERIOR ARPT  PTCLDY    59  57  95 NE6       29.95R
ASHLAND        CLEAR     56  56 100 SW3       29.94R
HAYWARD        CLOUDY    66  63  90 CALM      29.96R FOG
SIREN          CLEAR     72  65  77 S5        29.93S
CUMBERLAND     CLEAR     68  64  88 CALM      29.96R FOG
RICE LAKE      CLEAR     70  64  81 CALM      29.96R HAZE
CHETEK         CLEAR     68  65  93 CALM      29.95R FOG
LADYSMITH      CLEAR     70  64  82 CALM      29.98R
EAU CLAIRE     PTCLDY    73  64  73 S7        29.94R
MENOMONIE      FAIR      72  65  78 S7        29.94R HAZE
NEW RICHMOND   CLEAR     70  64  82 S5        29.95R HAZE
OSCEOLA        CLEAR     69  69  98 SE3       29.96R FOG
$$

WIZ003>005-009-010-017-018-050500-
NORTH CENTRAL WISCONSIN

CITY           SKY/WX    TMP DP  RH WIND       PRES   REMARKS
MANITOWISH WTR CLEAR     61  61 100 CALM      29.98R
ARBOR VITAE    CLEAR     64  61  89 CALM      29.98R
WOODRUFF       CLEAR     64  61  89 CALM      29.98R
RHINELANDER    CLEAR     66  61  84 CALM      29.99R
EAGLE RIVER    PTCLDY    66  59  77 S6        29.99R
LAND O LAKES   PTCLDY    65  60  84 CALM      30.00R
PHILLIPS       CLEAR     65  62  87 CALM      29.97R
TOMAHAWK       PTCLDY    63  60  92 CALM      29.98R
MEDFORD        CLEAR     66  63  89 S5        29.98S
MERRILL        PTCLDY    64  62  91 CALM      29.98R
$$

WIZ029-030-035-036-043>047-050500-
CENTRAL WISCONSIN

CITY           SKY/WX    TMP DP  RH WIND       PRES   REMARKS
WAUSAU         PTCLDY    72  65  78 S5        29.96R HAZE
MOSINEE        CLEAR     66  63  88 S7        29.99R
MARSHFIELD     MOCLDY    67  61  81 S5        29.98R HAZE
STEVENS POINT  CLEAR     68  62  80 SW6       29.99R
WAUPACA        PTCLDY    69  64  84 CALM      29.98S
WAUTOMA        CLEAR     66  65  97 CALM      29.99R
WISC RAPIDS    CLEAR     68  62  81 S3        29.99R
CAMP DOUGLAS   CLEAR     65  65 100 S6        29.97R
$$

WIZ011>013-019>022-031-037>040-048>050-050500-
NORTHEAST WISCONSIN

CITY           SKY/WX    TMP DP  RH WIND       PRES   REMARKS
ANTIGO         CLEAR     65  64  94 SE7       30.00R
SHAWANO        PTCLDY    70  63  79 S3        29.98S
OCONTO         CLEAR     63  63 100 CALM      29.98S
STURGEON BAY   CLEAR     61  55  82 SE8       30.02S
GREEN BAY      CLEAR     66  61  84 S3        29.99S
MANITOWOC      CLEAR     61  59  93 MISG      30.01S
APPLETON       MOCLDY    72  63  73 VRB6      29.99S
CLINTONVILLE   MOCLDY    68  63  83 SE3       29.98S
OSHKOSH        CLEAR     67  62  84 S5        29.99R
$$

WIZ032>034-041-042-053>061-050500-
SOUTHWEST WISCONSIN

CITY           SKY/WX    TMP DP  RH WIND       PRES   REMARKS
LA CROSSE      CLEAR     71  65  81 S5        29.95R HAZE
SPARTA         PTCLDY    65  62  91 CALM      29.97S
VIROQUA        CLEAR     69  63  81 S6        30.00R
BOSCOBEL       CLEAR     64  62  93 CALM      29.99R FOG
PRAIRIE DU CHI CLEAR     66  61  85 CALM      29.99R
PLATTEVILLE    CLEAR     67  63  87 SE7       30.01R
$$

WIZ056-057-062-063-064-067-068-050500-
SOUTH CENTRAL WISCONSIN

CITY           SKY/WX    TMP DP  RH WIND       PRES   REMARKS
REEDSBURG      CLEAR     66  62  86 CALM      29.98S
BARABOO/DELLS  CLEAR     64  58  81 S3        29.99S
LONE ROCK      CLEAR     64  60  87 CALM      30.00R
MINERAL POINT  CLEAR     70  61  73 S6        30.02R
MADISON        MOCLDY    67  61  81 CALM      30.00R
MIDDLETON      CLEAR     65  63  94 CALM      30.01R
WATERTOWN      CLEAR     65  65 100 CALM      30.01R
MONROE         CLEAR     68  63  83 S7        30.02R
JANESVILLE     CLEAR     68  61  77 CALM      30.01R
$$

WIZ051-052-058>065-066-070>072-050500-
SOUTHEAST WISCONSIN

CITY           SKY/WX    TMP DP  RH WIND       PRES   REMARKS
MILWAUKEE      MOCLDY    67  55  65 S3        30.02R
WAUKESHA       CLEAR     68  61  77 S6        30.03S
MILWAUKEE/TIMM CLEAR     70  55  60 S6        30.02S
RACINE         CLEAR     64  54  69 S3        30.04R
BURLINGTON     CLEAR     62  60  95 CALM      30.02S
KENOSHA        CLEAR     66  55  67 S7        30.03R
FOND DU LAC    CLEAR     67  63  87 S5        30.00R
SHEBOYGAN      CLEAR     62  57  83 CALM      30.01R
WEST BEND      CLEAR     63  61  94 CALM      30.02R
JUNEAU         CLEAR     68  62  81 SE3       30.02R
$$

LSZ147-162-050500-
LAKE SUPERIOR

STATION/POSITION TIME  TEMP    WIND        PRES    WAVE
                       AIR SEA DIR/SP/G            HT/PER
                 (UTC) (F)     (DEG/KT/KT) (MB)    (FT/S)
W MID LAKE BUOY  0350   47 39   80/  8/  8 1014.2R   0
DEVILS ISLAND    0400   54      20/ 10/ 11 1014.2R
SAXON HARBOR     0300   62      CALM  / 23 1012.5R
$$

LMZ867-665-643>646-050500-
LAKE MICHIGAN

STATION/POSITION TIME  TEMP    WIND        PRES    WAVE
                       AIR SEA DIR/SP/G            HT/PER
                 (UTC) (F)     (DEG/KT/KT) (MB)    (FT/S)
CHAMBERS ISLAND  0300   65     130/  3/  5 1015.9R
S GREEN BAY BUOY 0400   67 69  150/ 10/ 12 1016.6F
N MID LAKE BUOY  0350   55 51  210/  6/  6 1016.3F   0
NORTHPORT PIER   0300   62     180/  4/  7 1015.9R
SISTER BAY       0314   62     150/  9/ 12   N/A
ALGOMA LAKESHORE 0311             CALM       N/A
KEWAUNEE LAKESHO 0400   61     130/  2/  4 1015.5R
SHEBOYGAN LAKESH 0400   62     160/  7/  7 1016.5R
PORT WASHINGTON  0300   64      CALM  /  1 1016.6R
ATWATER BUOY     0400   64 61  160/  6/  8 1017.8R
MILWAUKEE LAKESH 0400   69     170/  3/  4   N/A
KENOSHA   LAKESH 0300   68     180/  7/  9 1016.3R
$$

TC  - TEMPERATURE IN CELSIUS
VSB - VISIBILITY IN STATUTE MILES
WCI - WIND CHILL INDEX
HX  - HEAT INDEX



USA.gov is the U.S. government's official web portal to all federal, state and local government web resources and services.